Home   Weather   Astana   Past weeks

Flag for Kazakhstan Past Weather in Astana, Kazakhstan — Yesterday and Last 2 Weeks

Now
50 °F

Clear.


Feels Like: 48 °F
Forecast: 49 / 67 °F
Wind: 6 mph from Southwest

Location: Astana

Current Time: May 24, 2017 at 4:49:02 am

Latest Report: May 24, 2017 at 4:00 am


Visibility: 10 mi

Pressure: 29.80 "Hg

Humidity: 94%

Dew Point: 48 °F

Location of AstanaLocation

Past Weather in Astana — Graph

°F

Astana Temperature Yesterday

Maximum temperature yesterday: 81 °F (at 12:00 pm)
Minimum temperature yesterday: 59 °F (at 2:00 am)
Average temperature yesterday: 68 °F

High & Low Weather Summary for the Past Weeks

 TemperatureHumidityPressure
High88 °F (May 12, 4:00 pm)94% (May 13, 8:00 am)30.42 "Hg (May 13, 8:00 am)
Low32 °F (May 17, 5:30 am)13% (May 20, 4:00 pm)29.47 "Hg (May 23, 10:00 am)
Average59 °F47%30.02 "Hg
* Reported May 9 3:00 am — May 24 3:30 am, Astana. Weather by CustomWeather, © 2017

Note: Actual official high and low records may vary slightly from our data, if they occured in-between our weather recording intervals... More about our weather records

Advertising

Astana Weather History for the Previous 24 Hours

Scroll right to see more
 ConditionsComfort  
Time TempWeatherWind HumidityBarometerVisibility
3:30 am
Wed, May 24
54 °FPassing clouds.3 mph88%29.80 "HgN/A
3:00 am57 °FClear.6 mph82%29.80 "Hg10 mi
2:30 am57 °FPassing clouds.6 mph82%29.80 "HgN/A
2:00 am61 °FClear.10 mph72%29.80 "Hg10 mi
1:30 am63 °FClear.10 mph68%29.77 "Hg10 mi
1:00 am63 °FClear.15 mph68%29.77 "Hg10 mi
12:30 am63 °FClear.15 mph64%29.74 "Hg10 mi
12:00 am63 °FClear.13 mph68%29.74 "Hg10 mi
11:30 pm
Tue, May 23
64 °FClear.13 mph64%29.74 "Hg10 mi
11:00 pm64 °FClear.13 mph64%29.74 "Hg10 mi
10:30 pm66 °FClear.15 mph60%29.74 "Hg10 mi
10:00 pm66 °FSunny.13 mph60%29.71 "Hg10 mi
9:30 pm68 °FScattered clouds.17 mph56%29.71 "HgN/A
9:00 pm68 °FScattered clouds.20 mph56%29.68 "HgN/A
8:30 pm70 °FScattered clouds.20 mph53%29.68 "HgN/A
8:00 pm70 °FScattered clouds.20 mph50%29.68 "HgN/A
7:30 pm70 °FPartly sunny.17 mph53%29.68 "HgN/A
7:00 pm70 °FPartly sunny.20 mph53%29.68 "HgN/A
6:30 pm68 °FPartly sunny.17 mph56%29.68 "HgN/A
6:00 pm70 °FPartly sunny.29 mph50%29.65 "HgN/A
5:30 pm72 °FPartly sunny.31 mph44%29.65 "HgN/A
5:00 pm72 °FPartly sunny.33 mph47%29.62 "HgN/A
4:30 pm73 °FBroken clouds.38 mph41%29.62 "HgN/A
4:00 pm75 °FPartly sunny.36 mph36%29.59 "HgN/A
3:30 pm77 °FPartly sunny.36 mph34%29.59 "HgN/A
3:00 pm77 °FSunny.33 mph36%29.56 "Hg10 mi
2:30 pm77 °FSunny.33 mph36%29.56 "Hg10 mi
2:00 pm79 °FSunny.36 mph32%29.53 "Hg10 mi
1:30 pm79 °FSunny.33 mph32%29.53 "Hg10 mi
1:00 pm79 °FSunny.33 mph34%29.50 "Hg10 mi
12:30 pm77 °FSunny.26 mph44%29.50 "Hg10 mi
12:00 pm81 °FSunny.24 mph32%29.50 "Hg10 mi
11:30 am77 °FSunny.26 mph34%29.50 "Hg10 mi
11:00 am77 °FSunny.22 mph36%29.47 "Hg10 mi
10:30 am73 °FBroken clouds.15 mph44%29.47 "HgN/A
10:00 am68 °FBroken clouds.10 mph56%29.47 "HgN/A
9:30 am75 °FSunny.20 mph31%29.50 "Hg10 mi
9:00 am75 °FSunny.20 mph29%29.50 "Hg10 mi
8:30 am70 °FSunny.20 mph33%29.50 "Hg10 mi
8:00 am66 °FSunny.22 mph35%29.50 "Hg10 mi
7:00 am61 °FSunny.17 mph42%29.50 "Hg10 mi
6:30 am61 °FSunny.15 mph45%29.50 "Hg10 mi
6:00 am61 °FClear.17 mph45%29.50 "Hg10 mi
5:30 am59 °FClear.13 mph48%29.53 "Hg10 mi
5:00 am59 °FClear.15 mph51%29.53 "Hg10 mi
4:30 am61 °FClear.13 mph48%29.56 "Hg10 mi
4:00 am59 °FClear.10 mph59%29.56 "Hg10 mi
Weather by CustomWeather, © 2017

See weather overviewHow to use our weather pages